Вернуться в каталог

STARLINK-36572

АктивенСвязьSSO
NORAD 67536·PAYLOAD·🇺🇸 United States

Запущен Jan 22, 2026 с Vandenberg Space Force Base

Loading…

Ближайшие Пролёты (ближайшие 24 часа)

TLE

СвежийSource: CelesTrak SupGP

Эпоха: Sep 14, 2026, 21:16 UTC

1 67536C 26014E   26257.88659722 -.00025197  00000+0 -78257-3 0  2573
2 67536  97.2845 143.2966 0001936  95.6919 341.9818 15.33434813    13

Отслеживайте STARLINK-36572 в реальном времени с AllMySat

Download on the App Store